Presure
96 104 113 160 172 171 157 151 145 179 189 167 127 188 190 194 223 181 96 190 134 106 217 180 183 102 159 80 111 186 172 163 159 167 197 162 167 169
174 119 154 123 186 126 118 115 96 132 138 143 140 169 100 210 148 194 191 97 185 172 171 192 171 167 183 83 192 168 174 184 158 168 188 173 170 177
166 170 172 124 168 185 171 94 130 182 150 175 130 109 167 197 106 190 192 148 197 179 176 169 167 136 176 83 170 165 168 177 162 164 186 165 161 156
190 167 100 190 91 101 124 122 166 140 125 103 117 187 94 198 190 185 179 197 119 173 176 155 169 169 145 178 167 164 182 182 159 172 189 186 144 181
170 174 140 145 176 148 144 101 97 103 117 108 110 180 144 192 170 167 180 170 193 168 153 164 153 115 149 184 160 160 151 168 179 170 199 156 189 168
164 162 122 128 168 135 163 100 146 132 136 97 146 126 147 93 149 97 187 83 173 144 146 152 148 157 174 145 182 157 156 184 171 183 163 176 184 171
183 152 176 148 175 129 171 149 96 175 182 183 108 177 181 174 187 162 156 188 183 168 138 167 168 166 151 148 176 176 182 178 176 189 164 161 188 175
184 186 84 143 189 193 163 182 190 182 170 124 110 183 185 175 158 170 171 193 163 152 153 172 172 177 162 190 181 155 184 184 163 180 171 163 181 165
183 156 165 119 203 190 182 154 186 179 164 181 89 156 144 139 160 181 166 173 153 176 142 169 160 169 164 173 175 178 189 167 157 179 157 162 165 159
171 140 162 152 188 175 181 152 188 176 175 159 97 179 139 142 123 120 175 178 171 171 156 157 163 163 167 172 167 192 178 193 193 185 166 175 181 194
163 172 148 170 174 155 105 148 179 193 167 152 165 167 162 147 83 171 159 154 157 179 179 158 163 178 163 190 177 172 200 153 180 183 162 161 179 182
150 156 176 142 157 151 181 161 171 199 171 185 148 184 137 169 164 151 175 159 167 186 144 174 178 193 153 163 168 161 192 172 167 168 189 170 189 154
187 161 179 184 100 159 156 162 178 179 174 183 170 163 156 172 166 157 158 144 149 162 172 165 175 152 180 155 181 173 151 165 167 166 159 173 178 155
146 169 155 191 211 179 178 189 161 164 170 172 189 164 164 167 160 167 167 154 155 168 165 177 168 168 157 181 175 179 169 169 180 167 168 163 175 168
146 165 161 150 143 136 149 157 168 184 143 182 177 175 163 168 168 137 148 153 168 181 154 176 185 175 155 174 155 183 174 182 147 149 170 183 167 147
134 122 142 162 151 142 142 150 155 192 170 187 154 160 154 160 156 156 146 173 158 160 161 164 156 178 173 181 163 167 164 173 166 160 166 178 169 173
179 173 196 156 169 167 129 140 142 172 174 154 158 164 167 146 146 168 169 158 153 188 171 159 172 158 176 177 163 149 177 171 157 169 170 135 175 176
165 166 189 192 167 149 155 180 153 193 150 151 157 149 140 169 183 180 157 163 177 182 163 174 169 187 172 174 170 174 169 154 174 146 179 195 191 177
184 178 172 187 160 170 152 157 169 167 137 188 184 174 176 168 167 172 160 169 163 163 177 160 192 176 176 177 170 167 186 174 164 183 191 140 195 170
199 193 169 179 179 162 180 170 158 158 152 156 162 163 168 174 181 173 152 172 186 179 163 184 179 166 180 147 177 153 150 170 170 174 153 155 196 165
184 191 191 177 166 176 181 168 159 158 173 164 168 156 160 163 167 159 164 190 177 162 184 160 174 179 180 159 168 151 194 162 152 162 173 194 188 195
176 188 185 193 176 160 159 163 153 159 153 166 187 157 173 178 153 179 174 171 161 176 153 164 188 187 184 143 184 171 184 155 182 163 171 208 188 160
188 178 180 195 190 183 177 188 187 177 182 179 171 170 178 164 163 158 156 183 179 174 180 181 180 153 164 174 174 174 190 172 173 177 181 191 197 186
Wind_Speed
42 49 52 70 73 62 62 56 53 60 53 46 45 41 35 33 27 32 46 17 39 52 23 23 20 49 45 44 52 36 36 45 51 48 63 62 61 68
99 53 66 53 71 55 48 50 33 41 40 39 55 47 40 25 40 26 22 51 27 26 30 18 26 32 29 52 36 36 38 48 62 47 69 59 61 72
90 93 73 64 76 60 58 36 45 53 57 60 45 39 38 28 44 27 20 40 22 23 25 27 32 49 31 56 40 40 46 51 50 48 69 66 65 78
94 81 53 64 46 47 61 52 59 48 61 41 41 48 43 28 29 28 33 20 42 21 23 36 28 32 41 38 39 41 52 53 58 52 71 72 86 75
102 97 76 77 85 70 71 51 49 53 53 46 47 44 42 29 38 40 35 37 22 25 32 31 41 43 51 52 47 50 64 49 58 53 74 69 76 70
95 89 60 60 80 59 60 57 49 52 53 48 45 47 49 48 44 51 31 45 28 36 37 39 52 44 44 60 56 61 60 60 64 64 61 69 77 74
114 80 92 65 82 63 58 67 55 55 53 49 44 40 44 39 38 37 37 33 29 28 39 33 38 41 57 62 47 56 60 58 58 68 61 67 84 78
112 105 28 46 87 68 61 76 52 47 56 67 52 49 41 42 37 39 39 39 26 38 37 34 41 49 46 61 57 56 63 66 58 62 60 65 75 74
113 70 71 41 75 76 75 65 59 65 54 55 41 39 56 37 39 41 34 38 33 33 54 43 45 50 57 54 55 53 66 53 71 62 70 71 84 84
86 51 73 61 88 83 80 52 62 51 59 42 54 54 44 43 40 40 47 48 39 43 37 51 55 56 57 56 50 73 59 78 80 76 59 78 88 98
84 78 55 66 79 72 46 51 71 50 55 41 49 55 48 45 38 48 35 38 33 53 55 45 49 61 55 71 66 52 82 72 70 75 69 84 88 88
69 65 80 54 49 47 82 49 63 63 66 67 43 60 50 60 53 36 56 40 47 64 53 60 65 74 61 59 69 57 80 61 74 65 90 79 98 85
88 69 82 94 35 57 51 60 77 61 63 70 64 55 56 62 54 43 48 46 42 51 62 52 62 56 72 64 71 65 73 62 69 77 76 86 91 89
47 77 60 100 86 87 85 82 44 55 68 72 71 60 60 59 51 55 56 44 52 59 57 65 57 65 61 73 68 75 65 69 85 85 75 76 96 87
46 78 67 65 58 55 52 46 56 77 50 76 75 73 58 60 57 51 47 50 59 74 52 67 73 66 64 71 69 84 70 90 77 82 81 104 94 75
50 73 53 62 60 54 50 48 49 75 66 79 55 64 56 58 49 47 52 68 53 55 55 54 58 79 78 81 72 71 70 87 88 79 87 95 91 95
108 91 104 58 65 60 63 61 59 66 70 69 68 67 69 51 51 64 64 53 55 78 69 56 66 59 80 81 65 76 86 76 78 89 81 61 96 103
85 73 100 98 62 59 65 82 63 80 64 66 66 61 54 70 79 78 54 62 77 78 64 71 63 88 71 84 74 80 92 79 95 77 107 112 114 99
109 93 70 98 62 83 63 67 76 70 62 87 84 79 78 69 64 68 58 68 61 62 82 61 87 74 80 86 83 87 100 82 78 101 115 66 121 94
115 112 70 87 92 74 93 86 72 67 67 63 62 61 67 77 79 70 61 69 85 83 67 89 76 61 94 75 83 82 84 94 83 92 87 92 113 93
103 109 109 95 75 93 96 83 72 65 75 66 72 62 63 64 65 62 64 87 81 71 93 73 75 89 92 77 85 82 103 84 76 87 98 119 114 123
88 104 107 110 91 72 71 74 70 70 66 72 85 65 81 82 66 87 82 76 66 85 74 78 97 103 100 73 105 82 107 86 105 84 101 130 115 91
111 97 97 110 105 98 77 96 96 87 90 86 74 75 82 67 65 70 70 96 94 92 101 98 92 74 73 86 93 92 114 90 89 98 109 122 127 118
Wind_Direction
226 236 238 246 247 243 252 248 251 270 276 280 270 283 282 281 279 287 286 295 295 299 315 312 311 321 304 324 320 345 332 318 318 337 354 326 329 332
239 226 237 238 239 245 248 247 253 262 262 269 268 283 271 272 288 279 286 291 303 300 305 325 309 309 330 328 351 324 340 349 319 338 351 345 338 345
240 244 242 241 250 243 250 242 250 268 263 279 272 268 279 281 280 281 291 295 294 294 306 309 320 313 330 325 323 330 329 337 322 328 353 330 326 324
228 240 226 228 229 238 247 254 267 253 259 257 266 280 268 271 282 284 288 302 303 297 304 299 316 316 309 334 320 317 349 347 321 339 351 355 325 351
237 239 235 241 245 241 253 240 245 253 263 258 268 274 281 272 290 288 289 295 302 290 304 313 300 317 304 346 310 318 314 328 346 331 343 320 354 333
234 236 236 237 249 242 243 242 243 251 259 253 263 268 271 276 282 281 295 309 298 293 314 293 305 301 341 304 338 321 308 345 333 350 328 347 355 339
229 239 238 247 244 240 247 246 244 268 264 263 262 276 283 287 285 287 300 299 302 297 300 306 308 310 317 312 331 335 339 341 346 349 329 325 350 336
228 230 254 241 235 233 260 251 248 249 266 263 261 274 278 287 282 294 302 299 289 287 292 323 322 335 308 342 338 316 341 345 325 346 337 327 349 330
229 236 240 236 227 237 246 251 245 257 264 257 268 277 275 286 280 294 300 305 283 305 288 318 311 315 311 336 334 334 340 328 318 339 322 326 335 331
229 233 232 239 237 247 247 241 247 252 260 271 264 272 277 284 292 297 302 308 305 310 292 304 314 316 327 332 325 333 337 339 339 340 329 341 341 347
233 235 237 238 243 245 254 249 259 232 261 262 276 280 272 282 294 293 292 284 290 313 320 305 325 325 320 328 325 328 331 314 340 341 327 330 342 347
235 231 229 232 237 242 247 260 259 242 265 262 270 268 278 278 280 275 294 294 306 308 286 322 325 318 306 318 324 315 332 333 326 335 339 334 341 326
221 231 237 237 225 246 250 256 257 252 263 263 270 262 269 275 282 286 287 282 285 306 314 316 323 310 326 309 330 329 312 325 332 329 321 331 340 322
224 232 228 236 232 242 245 246 249 261 265 266 260 267 272 275 280 286 289 294 294 311 302 312 312 319 307 320 330 332 325 327 336 328 329 329 332 329
213 234 226 226 229 238 242 245 256 253 256 258 259 267 268 274 279 280 287 294 303 304 300 314 312 315 305 323 305 330 334 327 317 319 331 339 330 327
210 228 224 233 234 238 246 247 251 246 256 251 263 266 268 273 277 285 280 295 297 299 305 311 300 314 316 320 314 325 317 328 323 318 322 336 333 338
230 233 232 228 239 245 239 243 247 250 251 256 260 264 268 275 278 285 289 290 293 297 305 301 306 304 318 321 314 308 328 327 314 323 331 320 334 328
235 228 234 236 234 230 241 247 248 246 250 253 258 264 272 278 276 280 282 292 298 294 295 307 308 309 315 315 323 326 321 311 320 320 326 328 330 332
232 234 235 235 231 241 237 245 251 253 257 253 258 268 271 279 280 281 285 295 296 295 303 295 306 315 316 317 308 318 323 325 316 330 328 322 331 323
224 229 232 237 239 235 244 248 246 249 254 261 265 272 273 279 280 282 279 291 292 299 296 304 306 303 312 302 321 306 310 313 320 326 316 320 328 320
231 229 232 237 237 243 243 243 248 252 254 260 263 266 272 275 281 280 288 288 295 292 299 293 306 304 313 308 303 306 318 309 317 314 323 324 332 335
231 233 235 234 241 235 240 247 246 254 255 263 261 267 273 273 274 283 290 293 288 299 285 296 305 307 313 302 311 316 320 309 322 321 315 326 331 323
231 235 238 238 239 244 247 247 249 257 259 264 269 273 275 275 281 278 280 287 297 298 297 304 308 292 302 311 304 320 317 318 315 320 325 328 330 332